Weather History for LDSP - October, 2012

Change the Weather History Date:

Wednesday, October 10, 2012

  Actual Average Record
Temperature  
Mean Temperature 62 °F -  
Max Temperature 71 °F - - ()
Min Temperature 53 °F - - ()
Degree Days  
Heating Degree Days 3    
Growing Degree Days 12 (Base 50)    
Moisture  
Dew Point 56 °F    
Average Humidity 80    
Maximum Humidity 94    
Minimum Humidity 56    
Precipitation  
Precipitation 0.00 in - - ()
Sea Level Pressure  
Sea Level Pressure 29.87 in    
Wind  
Wind Speed 3 mph ()    
Max Wind Speed 8 mph    
Max Gust Speed -    
Visibility 8.7 miles    
Events      
T = Trace of Precipitation, MM = Missing Value Source: Averaged Metar Reports

Daily Weather History Graph

Daily Weather History Graph

Search for Another Location

Airport or City:

Trip Planner

Search our weather history database for the weather conditions in past years. The results will help you decide how hot, cold, wet, or windy it might be!

Date:

Astronomy

Oct. 10, 2012 Rise Set
Actual Time 7:03 AM CEST 6:19 PM CEST
Civil Twilight 6:34 AM CEST 6:48 PM CEST
Nautical Twilight 6:01 AM CEST 7:21 PM CEST
Astronomical Twilight 5:27 AM CEST 7:54 PM CEST
Moon 1:11 AM CEST (10/10) 3:20 PM CEST (10/10)
Length of Visible Light 12h 13m
Length of Day
11h 16m
Waning Crescent, 30% of the Moon is Illuminated
Oct 10
Waning Crescent
Oct 15
New
Oct 22
First Quarter
Oct 29
Full
Nov 7
Last Quarter

Hourly Weather History & Observations

Time (CEST) Temp. Dew Point Humidity Pressure Visibility Wind Dir Wind Speed Gust Speed Precip Events Conditions
12:00 AM 57.2 °F 53.6 °F 88% 29.92 in 6.2 mi NNW 4.6 mph - N/A   Mostly Cloudy
12:30 AM 57.2 °F 53.6 °F 88% 29.92 in 6.2 mi North 4.6 mph - N/A   Mostly Cloudy
1:00 AM 57.2 °F 53.6 °F 88% 29.92 in 6.2 mi Variable 2.3 mph - N/A   Mostly Cloudy
1:30 AM 57.2 °F 53.6 °F 88% 29.89 in 6.2 mi Variable 2.3 mph - N/A   Mostly Cloudy
2:00 AM 57 °F 54 °F 85% 29.91 in 9 mi NE 2.2 mph - -   Mostly Cloudy
2:00 AM 57.2 °F 53.6 °F 88% 29.89 in 6.2 mi Variable 1.2 mph - N/A   Mostly Cloudy
2:30 AM 57.2 °F 53.6 °F 88% 29.89 in 6.2 mi North 4.6 mph - N/A   Mostly Cloudy
3:00 AM 57.2 °F 53.6 °F 88% 29.89 in 6.2 mi Calm Calm - N/A   Mostly Cloudy
3:30 AM 57.2 °F 53.6 °F 88% 29.89 in 6.2 mi Variable 3.5 mph - N/A   Scattered Clouds
4:00 AM 55.4 °F 51.8 °F 88% 29.89 in 6.2 mi NNW 4.6 mph - N/A   Partly Cloudy
4:30 AM 55.4 °F 51.8 °F 88% 29.89 in 6.2 mi Variable 3.5 mph - N/A   Partly Cloudy
5:00 AM 55 °F 52 °F 86% 29.89 in 12 mi North 4.5 mph - -   Scattered Clouds
5:00 AM 55.4 °F 51.8 °F 88% 29.89 in 6.2 mi North 4.6 mph - N/A   Partly Cloudy
5:30 AM 55.4 °F 51.8 °F 88% 29.86 in 6.2 mi Variable 3.5 mph - N/A   Partly Cloudy
6:00 AM 55.4 °F 51.8 °F 88% 29.89 in - NNW 5.8 mph - N/A   Clear
6:30 AM 53.6 °F 51.8 °F 94% 29.86 in - NNW 4.6 mph - N/A   Clear
7:00 AM 53.6 °F 51.8 °F 94% 29.86 in - Variable 2.3 mph - N/A   Clear
7:30 AM 53.6 °F 51.8 °F 94% 29.89 in - Variable 3.5 mph - N/A   Clear
8:00 AM 55 °F 53 °F 88% 29.90 in 19 mi NNW 2.2 mph - -  
8:00 AM 55.4 °F 51.8 °F 88% 29.89 in - Variable 2.3 mph - N/A   Clear
8:30 AM 59.0 °F 55.4 °F 88% 29.89 in - Variable 1.2 mph - N/A   Clear
9:00 AM 62.6 °F 57.2 °F 82% 29.89 in - Calm Calm - N/A   Clear
9:30 AM 64.4 °F 57.2 °F 77% 29.89 in - Variable 1.2 mph - N/A   Clear
10:00 AM 64.4 °F 57.2 °F 77% 29.89 in - Variable 3.5 mph - N/A   Clear
10:30 AM 66.2 °F 55.4 °F 68% 29.89 in - East 4.6 mph - N/A   Clear
11:00 AM 67 °F 56 °F 61% 29.89 in 19 mi Calm Calm - -   Mostly Cloudy
11:00 AM 66.2 °F 57.2 °F 73% 29.89 in - Variable 1.2 mph - N/A   Clear
11:30 AM 68.0 °F 57.2 °F 68% 29.89 in - Calm Calm - N/A   Clear
12:00 PM 68.0 °F 57.2 °F 68% 29.89 in - Variable 3.5 mph - N/A   Clear
12:30 PM 69.8 °F 57.2 °F 64% 29.89 in - Variable 3.5 mph - N/A   Clear
1:00 PM 69.8 °F 57.2 °F 64% 29.86 in - ESE 4.6 mph - N/A   Clear
1:30 PM 69.8 °F 57.2 °F 64% 29.86 in - East 4.6 mph - N/A   Clear
2:00 PM 70 °F 58 °F 56% 29.87 in 31 mi East 4.5 mph - -   Scattered Clouds
2:00 PM 69.8 °F 57.2 °F 64% 29.86 in - Variable 3.5 mph - N/A   Clear
2:30 PM 69.8 °F 59.0 °F 68% 29.86 in - Variable 2.3 mph - N/A   Clear
3:00 PM 69.8 °F 59.0 °F 68% 29.86 in - Variable 3.5 mph - N/A   Clear
3:30 PM 71.6 °F 59.0 °F 64% 29.86 in - Variable 3.5 mph - N/A   Clear
4:00 PM 71.6 °F 59.0 °F 64% 29.83 in - SW 8.1 mph - N/A   Clear
4:30 PM 69.8 °F 59.0 °F 68% 29.83 in - WSW 5.8 mph - N/A   Clear
5:00 PM 69 °F 59 °F 62% 29.85 in 31 mi WSW 6.7 mph - -   Clear
5:00 PM 69.8 °F 59.0 °F 68% 29.83 in - WSW 5.8 mph - N/A   Clear
5:30 PM 68.0 °F 59.0 °F 73% 29.83 in - SW 6.9 mph - N/A   Clear
6:00 PM 66.2 °F 59.0 °F 78% 29.83 in - WSW 4.6 mph - N/A   Clear
6:30 PM 66.2 °F 59.0 °F 78% 29.83 in - WSW 4.6 mph - N/A   Clear
7:00 PM 64.4 °F 57.2 °F 77% 29.83 in - Variable 3.5 mph - N/A   Clear
7:30 PM 60.8 °F 57.2 °F 88% 29.86 in - Variable 3.5 mph - N/A   Clear
8:00 PM 60 °F 56 °F 83% 29.86 in 12 mi Calm Calm - -  
8:00 PM 60.8 °F 57.2 °F 88% 29.86 in - Variable 1.2 mph - N/A   Clear
8:30 PM 60.8 °F 57.2 °F 88% 29.86 in - Variable 3.5 mph - N/A   Clear
9:00 PM 60.8 °F 57.2 °F 88% 29.86 in - Calm Calm - N/A   Clear
9:30 PM 60.8 °F 57.2 °F 88% 29.86 in - Variable 1.2 mph - N/A   Clear
10:00 PM 60.8 °F 57.2 °F 88% 29.86 in - Calm Calm - N/A   Clear
10:30 PM 60.8 °F 57.2 °F 88% 29.86 in - Variable 3.5 mph - N/A   Clear
11:00 PM 61 °F 57 °F 82% 29.87 in 12 mi Calm Calm - -  
11:00 PM 60.8 °F 57.2 °F 88% 29.86 in - Variable 1.2 mph - N/A   Clear
11:30 PM 60.8 °F 57.2 °F 88% 29.86 in - Calm Calm - N/A   Clear